Flag for U.S.A. Weather past 2 weeks in Omaha, Nebraska, U.S.A.

Now
86 °F

Sunny.


Feels Like: 94 °F
Forecast: 73 / 90 °F
Wind: 9 mph from Southeast

Location: Millard Airport

Current Time: Sep 2, 2015 at 7:30:03 PM

Latest Report: Sep 2, 2015 at 6:55 PM


Visibility: 10 mi

Pressure: 29.83 "Hg

Humidity: 65%

Dew point: 73 °F

Location of OmahaLocation

Historic Weather in Omaha — Graph

°F

Omaha temperature yesterday

Maximum temperature yesterday: 90 °F (at 4:15 PM)
Minimum temperature yesterday: 67 °F (at 6:55 AM)
Average temperature yesterday: 78 °F

Past Weeks' High & Low Weather Summary

 TemperatureHumidityPressure
High90 °F (Sep 2, 4:55 PM)98% (Aug 31, 6:35 AM)30.21 "Hg (Aug 31, 6:35 AM)
Low49 °F (Aug 24, 6:15 AM)37% (Aug 24, 1:55 PM)29.70 "Hg (Aug 18, 6:15 PM)
Average70 °F75%29.98 "Hg
* Reported Aug 18 6:15 PM — Sep 2 6:15 PM, Omaha, Weather by CustomWeather, © 2015

Note: Actual official high and low records may vary slightly from our data, if they occured in-between our weather recording intervals... More about our weather records

Advertising

Omaha weather history for previous 24 hours

 ConditionsComfort  
Time TempWeatherWind HumidityBarometerVisibility
6:15 PM
Wed, Sep 2
88 °FSunny.10 mph63%29.83 "Hg10 mi
5:55 PM88 °FSunny.12 mph61%29.83 "Hg10 mi
5:35 PM90 °FSunny.10 mph58%29.83 "Hg10 mi
4:55 PM90 °FSunny.10 mph57%29.84 "Hg10 mi
4:35 PM89 °FSunny.10 mph59%29.84 "Hg10 mi
4:15 PM89 °FSunny.12 mph59%29.85 "Hg10 mi
3:55 PM88 °FSunny.12 mph60%29.86 "Hg10 mi
3:35 PM88 °FSunny.10 mph59%29.86 "Hg10 mi
3:15 PM87 °FSunny.13 mph59%29.87 "Hg10 mi
2:55 PM87 °FSunny.16 mph59%29.87 "Hg10 mi
2:35 PM87 °FSunny.14 mph60%29.88 "Hg10 mi
2:15 PM86 °FSunny.16 mph61%29.88 "Hg10 mi
1:55 PM85 °FSunny.14 mph62%29.89 "Hg10 mi
1:35 PM85 °FSunny.12 mph63%29.89 "Hg10 mi
1:15 PM85 °FSunny.14 mph63%29.90 "Hg10 mi
12:55 PM84 °FSunny.15 mph68%29.90 "Hg10 mi
12:35 PM83 °FSunny.17 mph67%29.91 "Hg10 mi
12:15 PM83 °FSunny.18 mph65%29.91 "Hg10 mi
11:55 AM82 °FSunny.16 mph66%29.92 "Hg10 mi
11:35 AM82 °FSunny.9 mph67%29.92 "Hg10 mi
11:15 AM82 °FSunny.17 mph67%29.92 "Hg10 mi
10:55 AM81 °FSunny.14 mph68%29.92 "Hg10 mi
10:35 AM80 °FSunny.17 mph71%29.92 "Hg10 mi
10:15 AM80 °FSunny.13 mph72%29.92 "Hg10 mi
9:55 AM79 °FSunny.14 mph74%29.92 "Hg10 mi
9:35 AM78 °FSunny.12 mph76%29.92 "Hg10 mi
9:15 AM77 °FSunny.12 mph78%29.92 "Hg10 mi
8:55 AM76 °FSunny.14 mph80%29.92 "Hg10 mi
8:35 AM75 °FSunny.13 mph82%29.92 "Hg10 mi
8:15 AM74 °FSunny.9 mph84%29.92 "Hg10 mi
7:55 AM73 °FSunny.10 mph88%29.92 "Hg10 mi
7:35 AM72 °FClear.8 mph90%29.91 "Hg10 mi
7:15 AM71 °FClear.8 mph91%29.91 "Hg7 mi
6:55 AM71 °FClear.9 mph91%29.90 "Hg10 mi
6:35 AM71 °FClear.7 mph90%29.90 "Hg10 mi
6:15 AM72 °FPassing clouds.6 mph90%29.90 "Hg10 mi
5:55 AM72 °FPassing clouds.5 mph90%29.90 "Hg10 mi
5:35 AM72 °FClear.3 mph89%29.90 "Hg10 mi
5:15 AM72 °FClear.5 mph89%29.90 "Hg10 mi
4:55 AM72 °FClear.6 mph87%29.90 "Hg10 mi
4:35 AM72 °FThundershowers. Clear.6 mph87%29.90 "Hg10 mi
4:15 AM72 °FClear.6 mph87%29.89 "Hg10 mi
3:55 AM72 °FClear.6 mph86%29.89 "Hg10 mi
3:35 AM72 °FClear.6 mph86%29.89 "Hg10 mi
3:15 AM73 °FClear.7 mph84%29.89 "Hg10 mi
2:55 AM74 °FClear.6 mph83%29.89 "Hg10 mi
2:35 AM74 °FClear.6 mph81%29.89 "Hg10 mi
2:15 AM75 °FClear.6 mph80%29.89 "Hg10 mi
1:55 AM75 °FThundershowers. Clear.5 mph79%29.90 "Hg10 mi
1:35 AM75 °FClear.6 mph79%29.90 "Hg10 mi
1:15 AM76 °FClear.6 mph78%29.91 "Hg10 mi
12:55 AM76 °FClear.7 mph78%29.91 "Hg10 mi
12:15 AM76 °FClear.7 mph75%29.92 "Hg10 mi
11:55 PM
Tue, Sep 1
77 °FClear.7 mph74%29.92 "Hg10 mi
11:35 PM78 °FClear.8 mph72%29.92 "Hg10 mi
11:15 PM79 °FClear.9 mph70%29.92 "Hg10 mi
10:55 PM79 °FClear.8 mph70%29.92 "Hg10 mi
10:15 PM80 °FClear.10 mph70%29.91 "Hg10 mi
9:55 PM80 °FClear.9 mph71%29.91 "Hg10 mi
9:35 PM79 °FClear.9 mph72%29.91 "Hg10 mi
9:15 PM79 °FClear.8 mph71%29.90 "Hg10 mi
8:55 PM80 °FSunny.8 mph70%29.90 "Hg10 mi
8:35 PM81 °FSunny.9 mph68%29.89 "Hg10 mi
8:15 PM82 °FSunny.10 mph65%29.89 "Hg10 mi
7:55 PM82 °FSunny.9 mph68%29.88 "Hg10 mi
7:35 PM83 °FSunny.7 mph67%29.88 "Hg10 mi
7:15 PM84 °FSunny.8 mph64%29.88 "Hg10 mi
Weather by CustomWeather, © 2015

See weather overviewHow to use our weather pages